TimeEDT,TemperatureF,Dew PointF,Humidity,Sea Level PressureIn,VisibilityMPH,Wind Direction,Wind SpeedMPH,Gust SpeedMPH,PrecipitationIn,Events,Conditions,WindDirDegrees,DateUTC
12:54 AM,55.0,36.0,49,30.20,10.0,SE,6.9,-,N/A,,Overcast,130,2013-04-29 04:54:00
2:54 AM,55.0,39.9,57,30.17,10.0,SSE,5.8,-,N/A,,Overcast,150,2013-04-29 06:54:00
3:54 AM,55.0,42.1,62,30.16,10.0,ESE,6.9,-,0.00,,Overcast,120,2013-04-29 07:54:00
4:54 AM,54.0,44.1,69,30.16,10.0,SSE,6.9,-,N/A,,Overcast,150,2013-04-29 08:54:00
5:27 AM,53.6,46.4,77,30.14,10.0,SE,4.6,-,0.01,Rain,Light Rain,140,2013-04-29 09:27:00
5:51 AM,53.6,48.2,82,-9999,8.0,ESE,3.5,-,0.01,Rain,Light Rain,120,2013-04-29 09:51:00
5:54 AM,53.1,48.9,86,-9999,8.0,ESE,6.9,-,0.01,Rain,Light Rain,110,2013-04-29 09:54:00
6:34 AM,51.8,50.0,94,-9999,3.0,Calm,Calm,-,0.01,Rain,Light Rain,0,2013-04-29 10:34:00
6:54 AM,52.0,50.0,93,-9999,3.0,ESE,5.8,-,0.01,Rain,Light Rain,110,2013-04-29 10:54:00
7:54 AM,53.1,51.1,93,-9999,3.0,Calm,Calm,-,0.01,Rain,Light Rain,0,2013-04-29 11:54:00
8:54 AM,54.0,52.0,93,-9999,2.5,Variable,6.9,-,0.03,Rain,Light Rain,0,2013-04-29 12:54:00
9:54 AM,55.0,52.0,89,-9999,2.5,SE,8.1,-,0.03,Rain,Light Rain,140,2013-04-29 13:54:00
10:54 AM,55.0,53.1,93,-9999,2.5,ESE,4.6,-,0.01,Rain,Light Rain,120,2013-04-29 14:54:00
11:01 AM,55.4,53.6,94,-9999,2.5,SE,6.9,-,0.00,Rain,Light Rain,130,2013-04-29 15:01:00
11:35 AM,55.4,53.6,94,-9999,2.5,East,3.5,-,0.04,Rain,Light Rain,100,2013-04-29 15:35:00
11:54 AM,55.9,54.0,93,-9999,2.5,ESE,5.8,-,0.06,Rain,Light Rain,110,2013-04-29 15:54:00
12:24 PM,55.4,53.6,94,30.13,2.5,ESE,5.8,-,0.01,Rain,Light Rain,120,2013-04-29 16:24:00
12:31 PM,55.4,53.6,94,30.12,2.5,ESE,6.9,-,0.02,Rain,Light Rain,110,2013-04-29 16:31:00
12:41 PM,57.2,53.6,88,30.12,2.5,ESE,8.1,-,0.03,Rain,Light Rain,110,2013-04-29 16:41:00
12:54 PM,57.0,54.0,89,30.14,2.5,ESE,8.1,-,0.03,Rain,Light Rain,120,2013-04-29 16:54:00
1:54 PM,57.0,55.0,93,30.13,2.5,Variable,5.8,-,0.02,Rain,Light Rain,0,2013-04-29 17:54:00
2:12 PM,57.2,55.4,94,30.11,2.5,SE,9.2,-,0.01,Rain,Light Rain,130,2013-04-29 18:12:00
2:39 PM,57.2,55.4,94,30.10,2.5,SE,6.9,-,0.02,Rain,Light Rain,130,2013-04-29 18:39:00
2:54 PM,57.9,55.9,93,30.12,2.5,SE,8.1,-,0.03,Rain,Light Rain,130,2013-04-29 18:54:00
3:07 PM,57.2,55.4,94,30.10,2.5,ESE,6.9,-,0.00,Rain,Light Rain,120,2013-04-29 19:07:00
3:46 PM,57.2,55.4,94,30.10,2.5,ESE,6.9,-,0.01,Rain,Light Rain,120,2013-04-29 19:46:00
3:54 PM,57.9,55.9,93,30.11,2.5,SE,6.9,-,0.01,Rain,Light Rain,130,2013-04-29 19:54:00
4:01 PM,57.2,55.4,94,30.10,2.5,SSE,8.1,-,0.00,Rain,Light Rain,150,2013-04-29 20:01:00
4:37 PM,57.2,55.4,94,30.09,2.5,SE,9.2,16.1,0.02,Rain,Light Rain,140,2013-04-29 20:37:00
4:54 PM,57.0,55.0,93,30.11,2.5,SE,9.2,-,0.02,Rain,Light Rain,140,2013-04-29 20:54:00
5:01 PM,57.2,55.4,94,30.10,2.5,SSE,8.1,-,0.00,,Overcast,150,2013-04-29 21:01:00
5:12 PM,57.2,55.4,94,30.10,2.5,SSE,9.2,-,0.00,,Overcast,150,2013-04-29 21:12:00
5:20 PM,57.2,55.4,94,30.10,2.5,SE,8.1,-,0.00,,Overcast,140,2013-04-29 21:20:00
5:54 PM,57.9,55.0,90,30.12,2.5,SSE,9.2,-,0.00,,Overcast,150,2013-04-29 21:54:00
6:01 PM,57.2,53.6,88,30.10,10.0,SSE,8.1,18.4,N/A,,Overcast,150,2013-04-29 22:01:00
6:15 PM,57.2,53.6,88,30.11,10.0,SSE,10.4,-,N/A,,Overcast,150,2013-04-29 22:15:00
6:54 PM,57.9,53.1,84,30.13,10.0,SSE,6.9,-,N/A,,Overcast,160,2013-04-29 22:54:00
7:17 PM,57.2,53.6,88,30.11,10.0,SE,4.6,-,N/A,,Overcast,140,2013-04-29 23:17:00
7:30 PM,57.2,53.6,88,30.12,10.0,SE,5.8,-,N/A,,Overcast,130,2013-04-29 23:30:00
7:54 PM,57.0,52.0,83,30.14,10.0,SE,8.1,-,N/A,,Overcast,140,2013-04-29 23:54:00
8:54 PM,57.0,53.1,87,30.15,10.0,SE,8.1,-,N/A,,Overcast,140,2013-04-30 00:54:00
9:44 PM,57.2,53.6,88,30.15,10.0,SE,6.9,-,N/A,,Overcast,140,2013-04-30 01:44:00
9:54 PM,57.0,53.1,87,30.17,10.0,SE,8.1,-,N/A,,Overcast,140,2013-04-30 01:54:00
10:01 PM,57.2,53.6,88,30.16,10.0,SE,5.8,-,N/A,,Overcast,130,2013-04-30 02:01:00
10:54 PM,55.9,53.1,90,30.18,10.0,SE,8.1,-,N/A,,Overcast,140,2013-04-30 02:54:00
11:03 PM,55.4,51.8,88,30.16,10.0,SE,8.1,-,N/A,,Overcast,130,2013-04-30 03:03:00
11:30 PM,55.4,51.8,88,30.16,10.0,SE,8.1,-,N/A,,Overcast,130,2013-04-30 03:30:00
11:54 PM,55.9,53.1,90,30.17,10.0,SE,8.1,-,N/A,,Overcast,130,2013-04-30 03:54:00